Dewpoint
31 30 27 27 28 28 29 28 26 28 28 24 20 18 16 16 15 17 19 18 20 33 34 37 38 38 49 55 57 58 58 58 58 59 59 60 60 61 61 62 62 63 64 65 66 66 67 67 68 69 69 69 70 70 70 70 71 71 71 72 72 72 72 72 72 72 72 71 71 72 72 71 72 72 73 73 73 72 72 73 73 73 74 74 75 75
31 30 29 28 27 27 27 27 27 26 25 25 25 23 21 18 19 20 18 20 24 31 35 41 39 39 45 54 56 58 58 57 57 58 59 59 60 60 61 61 62 63 64 64 65 65 66 67 67 68 69 70 69 70 70 70 71 71 71 71 71 72 72 72 72 72 72 72 71 71 71 71 71 72 72 72 72 72 72 73 73 73 74 74 74 75
25 27 28 27 25 26 26 24 23 24 23 20 21 22 19 20 18 18 16 18 18 22 19 23 37 38 41 53 56 57 57 57 57 58 58 59 59 60 60 61 61 62 63 63 64 64 65 66 67 67 68 69 69 69 69 70 70 71 71 71 71 72 72 72 72 72 72 72 72 71 71 71 71 72 72 72 72 73 72 72 73 74 74 74 74 75
22 22 24 24 24 24 25 24 21 20 19 19 17 18 18 20 19 19 19 22 21 21 23 33 30 35 47 54 55 56 57 57 58 58 58 59 59 59 60 60 61 61 62 62 63 63 64 65 66 67 67 68 68 69 69 70 70 70 71 71 71 71 72 72 72 73 72 72 72 72 72 72 72 71 73 73 73 73 72 72 73 74 74 74 74 74
25 21 24 23 23 23 23 23 23 22 22 20 19 18 18 18 18 18 19 17 18 19 25 36 38 39 48 51 54 56 57 57 57 57 58 59 59 60 60 60 61 61 61 62 62 63 63 64 65 66 67 67 68 68 69 69 69 70 70 71 71 71 71 72 73 72 72 72 72 72 72 73 72 73 72 72 71 72 72 72 72 73 74 74 74 75
25 24 23 23 23 23 22 22 22 22 22 22 21 19 20 20 19 19 19 16 19 17 20 27 22 35 42 48 51 54 55 56 56 56 57 58 58 59 59 59 60 61 61 62 62 63 63 63 64 65 66 66 67 68 68 69 69 70 70 71 71 71 71 71 72 72 72 71 71 71 70 70 70 70 70 70 70 71 71 71 72 73 74 74 75 75
25 23 22 22 22 22 22 22 22 22 22 22 23 22 20 20 19 18 17 17 21 19 24 31 21 24 38 41 47 52 54 55 56 56 56 57 58 58 58 59 59 60 61 61 62 62 62 62 62 63 65 65 66 67 68 69 69 69 70 70 71 71 71 71 72 72 72 71 71 71 70 70 70 69 70 71 71 71 71 72 72 73 74 74 74 75
23 22 22 22 21 21 20 20 21 22 21 21 22 22 21 20 19 18 16 15 19 27 28 27 32 26 28 36 41 48 52 54 55 55 55 56 57 57 58 58 59 60 60 61 61 62 62 62 62 62 63 65 65 66 67 68 69 69 70 70 70 70 71 71 71 72 72 71 71 70 70 70 70 70 70 71 71 72 72 72 72 73 74 75 75 75
22 21 21 21 21 20 20 20 22 22 21 21 19 18 18 17 17 16 15 15 18 21 15 20 27 21 26 29 41 45 49 51 53 54 54 55 56 57 58 58 58 59 60 60 61 61 61 62 62 62 62 64 65 66 67 67 68 69 69 70 70 70 71 71 71 72 72 72 71 70 70 70 70 70 71 71 72 71 72 71 72 73 74 74 75 75
23 21 21 21 20 20 22 22 22 21 20 22 18 21 19 17 17 15 15 16 25 20 15 17 18 15 17 29 38 44 46 48 50 53 54 54 55 56 57 57 58 58 59 60 60 61 61 61 62 62 62 63 64 65 67 67 68 68 69 70 70 70 70 71 71 72 71 71 71 70 70 70 70 71 71 71 71 71 72 71 72 73 73 74 75 75
24 33 28 21 20 20 21 22 22 21 21 21 21 20 19 19 20 27 23 22 21 13 15 14 17 14 12 22 33 40 42 45 47 50 52 53 53 54 56 57 57 57 58 59 60 60 60 61 61 62 61 62 63 64 65 66 67 68 68 69 69 70 70 71 71 71 71 71 71 70 70 70 70 70 70 70 70 71 71 71 71 72 73 74 74 75
22 27 26 25 25 22 22 21 22 22 22 19 17 18 21 20 19 21 18 25 14 11 19 14 16 15 13 22 33 38 41 43 44 46 48 50 51 52 54 55 56 57 57 58 59 59 60 60 60 61 61 61 62 64 64 65 66 67 68 69 69 69 70 70 71 71 71 71 71 71 70 70 70 70 70 70 70 70 70 71 71 72 73 73 74 74
20 20 24 22 35 22 22 21 20 21 20 20 18 20 16 19 17 16 16 12 11 10 20 14 16 23 16 23 29 34 39 40 43 44 45 47 49 51 51 53 55 56 56 57 58 59 59 59 59 60 61 62 62 63 64 65 65 67 68 68 68 69 70 70 71 71 71 71 71 71 71 71 71 70 70 70 70 70 71 71 71 72 72 73 73 74
19 20 20 21 25 30 22 20 21 18 19 19 18 18 17 15 12 11 17 17 15 16 19 19 19 11 22 26 25 27 37 40 40 42 43 45 47 49 50 51 53 54 55 56 57 58 59 59 58 59 60 61 61 62 63 64 66 66 67 68 68 68 69 70 70 71 71 71 71 71 71 71 71 71 70 70 70 70 71 71 71 71 72 72 73 73
17 17 17 19 18 25 23 22 22 21 18 19 18 15 18 18 15 12 13 9 8 12 18 19 14 19 15 19 25 22 32 40 40 40 42 43 45 47 48 49 51 53 54 55 56 57 58 58 58 58 59 60 60 61 61 63 65 66 67 67 68 68 69 69 70 70 70 71 71 71 71 71 71 71 71 70 71 71 71 71 71 71 72 72 73 73
17 18 20 20 19 23 22 24 23 16 17 17 16 17 18 16 23 13 15 13 14 12 11 22 16 24 16 32 41 26 26 37 41 41 42 42 43 44 45 46 48 50 52 53 54 55 57 58 58 58 58 59 60 61 61 62 64 65 66 67 68 68 68 69 70 70 70 71 71 71 71 71 71 71 71 71 71 71 71 71 71 71 71 72 73 73
22 16 17 21 20 21 21 22 22 18 18 16 15 15 17 16 13 18 29 23 22 15 12 28 24 23 26 26 27 31 30 31 39 41 41 41 41 43 44 45 46 48 50 52 53 54 56 57 58 58 58 58 58 59 61 62 64 65 66 66 67 68 68 69 69 70 70 71 71 71 71 71 71 71 71 70 70 70 71 71 71 71 71 72 73 73
16 19 18 16 16 18 19 20 19 19 18 12 14 15 14 16 16 17 14 17 15 11 14 22 16 18 23 18 39 31 33 31 35 39 40 41 42 42 43 44 45 46 48 51 52 53 55 56 57 57 57 57 57 58 60 62 63 64 65 66 66 67 68 68 69 69 70 70 70 71 71 71 71 71 71 71 71 71 71 71 71 71 71 71 72 73
18 15 15 16 16 17 20 19 18 17 12 12 13 13 14 15 15 19 18 11 11 11 10 12 24 20 23 24 34 30 32 32 34 38 40 41 42 43 43 45 45 45 46 48 50 51 53 54 56 57 56 56 57 59 60 61 62 63 64 65 65 66 67 68 68 69 70 70 70 70 71 71 71 71 71 71 71 71 70 70 70 70 71 71 73 73
20 15 19 16 15 16 17 17 16 15 16 18 11 11 17 13 19 16 15 20 16 11 15 9 16 10 25 20 29 27 31 33 33 35 38 40 41 42 43 44 45 46 46 46 48 49 51 53 54 55 55 56 56 58 59 59 60 61 63 65 65 66 67 68 68 69 70 70 70 70 71 71 71 71 71 71 71 71 70 70 70 70 70 71 72 73
16 22 15 16 17 16 16 18 15 16 14 14 13 9 11 19 15 12 20 10 13 15 11 10 6 16 24 27 26 27 31 33 33 35 38 40 41 42 43 44 45 47 47 47 47 48 49 51 52 54 55 56 56 57 58 58 59 60 62 64 65 65 66 66 67 68 69 70 70 71 71 71 71 71 71 71 71 71 71 71 71 70 71 71 72 72
22 18 15 20 19 14 14 17 15 16 16 15 13 12 9 9 12 9 11 13 16 14 16 9 6 19 23 33 30 27 30 32 35 36 37 39 40 43 43 44 45 46 48 48 47 46 47 50 52 53 55 56 56 56 57 58 59 60 61 63 64 64 65 66 67 68 69 70 70 70 70 71 71 71 71 71 71 71 71 71 71 71 71 71 71 72
40 33 24 13 14 13 14 16 17 16 16 16 15 14 10 9 13 13 12 13 15 12 26 21 14 12 22 30 32 29 29 31 33 36 37 38 39 41 43 43 45 47 47 48 48 47 47 49 50 52 55 56 56 57 57 58 59 60 61 62 64 64 65 65 66 67 69 69 70 70 70 71 71 71 71 71 70 70 70 71 71 71 71 70 70 72
43 32 25 21 26 22 19 17 17 19 17 15 16 16 11 8 7 8 11 18 12 17 14 14 16 15 23 35 31 30 32 29 35 36 36 36 37 40 41 42 45 46 48 49 50 49 50 49 51 53 55 56 57 58 58 58 60 60 61 62 63 64 65 65 66 67 68 69 69 70 70 71 71 70 70 70 70 70 70 70 71 71 71 70 70 71
31 32 24 19 17 16 15 18 16 18 18 17 15 16 14 12 8 10 19 25 17 12 11 12 8 13 24 45 43 39 36 31 30 30 36 35 38 40 41 43 45 48 49 49 51 51 52 50 51 54 54 56 57 57 58 59 59 60 61 61 62 63 64 65 66 67 67 68 68 69 70 70 70 70 70 70 70 70 70 70 70 71 71 71 70 71
35 34 29 19 15 14 13 13 15 17 16 18 20 15 16 13 11 12 9 19 15 25 19 13 10 26 29 34 33 33 36 34 31 35 38 37 39 37 41 42 47 48 49 49 50 52 52 53 53 54 55 56 56 57 59 59 59 60 61 62 62 63 65 65 66 67 67 68 68 69 70 70 70 70 70 70 70 70 70 70 71 71 71 71 71 71
38 38 33 29 26 23 25 29 30 34 27 14 15 16 15 15 13 11 17 17 13 23 16 17 22 25 20 19 25 26 32 27 24 26 32 36 38 40 44 45 45 47 48 48 50 51 54 55 55 55 55 54 55 57 58 58 59 59 61 62 62 63 65 66 67 67 67 68 68 69 69 70 70 70 70 71 71 71 71 71 71 70 71 71 71 70
37 32 34 34 35 35 32 31 30 33 30 29 24 13 15 15 16 12 13 14 27 19 15 22 33 16 16 20 23 28 28 31 30 28 25 27 33 38 40 44 52 47 47 50 52 53 53 54 55 55 56 55 55 57 57 58 59 60 61 61 62 63 64 65 67 67 68 68 69 69 69 70 70 70 70 71 71 71 71 71 71 71 71 71 71 71
33 32 33 33 31 30 30 30 31 31 30 29 27 21 13 14 16 15 16 23 23 15 15 24 31 25 24 21 20 24 27 26 23 25 22 26 29 36 40 38 40 43 46 48 51 53 53 53 55 56 56 56 56 56 57 58 59 61 62 62 63 62 64 66 67 67 67 68 69 69 70 70 70 70 71 71 71 71 71 71 72 72 72 72 71 71
34 33 34 32 29 29 30 30 31 30 28 27 25 23 19 13 13 15 15 17 18 22 22 24 31 22 19 17 18 22 27 25 27 34 41 40 31 36 41 43 40 41 43 46 49 51 53 53 54 56 56 57 57 57 57 58 60 60 61 62 62 63 64 66 67 68 68 68 69 69 70 70 71 71 71 71 71 71 71 71 72 72 72 72 71 72
29 29 31 29 30 29 29 32 30 29 29 28 28 24 19 16 13 13 14 15 23 18 17 22 31 28 26 26 18 19 33 31 40 41 36 37 35 36 39 37 38 40 42 46 49 50 52 53 54 55 57 58 58 58 58 59 60 61 60 61 62 64 64 65 67 68 68 68 69 69 70 70 71 71 71 71 71 71 71 71 72 72 72 72 72 72
30 30 33 33 28 27 29 29 28 29 29 28 27 26 22 17 14 13 15 16 20 23 23 19 23 25 28 29 28 26 28 31 23 26 35 38 40 47 47 43 41 41 41 42 47 51 52 52 53 54 55 56 58 59 59 60 60 61 61 62 63 63 64 66 67 67 68 68 69 69 70 70 71 71 71 71 71 71 71 71 71 72 72 72 72 72
32 32 28 31 27 29 28 28 27 28 27 21 20 21 23 21 18 16 16 22 20 17 19 19 18 24 25 31 26 24 22 24 26 23 33 38 43 44 45 46 45 43 43 47 50 52 51 50 51 54 54 56 57 58 59 60 60 62 62 63 64 65 65 66 67 67 68 68 69 70 70 70 71 71 71 71 71 71 72 71 71 71 71 71 72 72
33 32 29 33 27 29 27 27 29 29 23 19 31 28 28 19 18 16 14 15 19 17 17 19 20 24 24 28 24 22 21 24 28 37 37 40 47 49 47 49 50 50 50 50 49 49 52 53 53 54 55 58 59 58 60 61 61 62 63 63 65 65 66 67 67 68 68 69 69 70 70 70 71 71 71 71 72 72 72 72 71 71 72 72 72 72
33 35 32 32 29 28 27 29 30 23 22 34 28 32 46 33 18 17 17 15 16 19 19 22 23 24 24 24 24 22 31 53 56 60 61 61 55 55 54 53 54 55 55 55 53 51 53 55 56 56 57 57 57 59 61 62 62 63 64 65 65 65 66 67 67 68 68 69 69 70 70 71 71 71 71 71 72 72 72 72 72 72 72 71 71 71
29 28 30 32 31 32 30 29 24 20 32 29 28 43 50 38 41 29 17 17 17 17 20 19 21 22 25 25 26 37 55 58 60 61 62 63 63 62 62 62 63 63 62 61 58 56 56 55 56 55 56 59 60 61 61 61 62 63 64 65 65 65 66 67 67 68 69 69 70 70 71 71 71 71 71 71 72 72 72 72 72 72 72 72 71 72
29 30 31 25 32 26 29 28 27 30 27 30 42 47 48 47 48 45 34 26 26 35 26 20 21 22 28 31 34 50 58 57 56 58 62 64 63 63 63 63 63 64 65 65 65 62 60 59 58 58 62 61 61 61 62 62 64 64 65 65 65 66 66 67 67 67 68 69 69 70 71 71 71 71 71 72 72 72 72 72 72 72 72 72 71 71
30 28 29 23 27 28 25 24 26 25 24 31 46 49 50 50 51 50 45 40 39 44 35 23 21 23 37 41 47 56 54 49 49 53 58 63 64 64 64 63 64 65 65 66 66 67 66 64 62 62 60 61 62 64 65 64 64 65 65 65 66 66 66 66 66 67 68 69 69 70 71 71 71 71 71 71 71 71 71 72 72 72 72 72 71 71
29 29 29 21 27 31 27 24 24 24 28 38 47 49 50 51 51 52 41 35 38 49 53 33 20 25 36 41 52 52 45 40 44 52 56 63 63 64 63 63 64 64 65 65 66 66 66 66 64 64 63 62 62 64 65 65 65 65 65 66 66 66 65 66 66 67 67 68 69 70 71 71 72 72 71 71 71 71 71 72 72 72 72 72 72 71
28 28 28 26 22 29 29 26 25 29 28 43 49 50 50 51 52 42 30 28 44 55 56 49 34 30 37 46 53 48 41 37 42 53 60 63 63 63 63 63 63 64 64 65 66 67 67 67 67 66 65 64 64 65 65 65 65 65 65 66 65 65 65 66 66 67 67 68 69 70 71 71 72 72 72 71 72 72 72 72 72 72 72 72 72 71
27 28 27 25 24 27 31 28 31 33 40 49 50 50 50 52 41 29 26 33 53 54 57 57 47 40 40 48 50 45 49 53 54 61 63 63 63 63 63 64 64 64 64 65 65 67 66 66 67 67 67 68 68 68 66 66 65 66 66 66 66 66 66 66 68 68 69 69 69 69 70 71 71 71 71 72 72 72 72 72 72 72 72 71 71 71
29 28 30 28 25 24 27 28 30 34 39 50 50 50 50 44 34 32 43 52 52 53 59 60 57 52 48 49 51 57 61 62 62 62 62 62 62 62 63 63 64 64 64 65 66 66 66 66 66 67 67 67 68 69 68 67 66 66 67 67 66 67 67 68 68 68 68 68 68 69 70 70 71 72 71 72 72 72 72 72 72 72 72 71 71 71
39 32 33 28 31 34 37 33 33 30 37 52 50 49 50 46 44 50 51 51 53 58 60 60 60 59 58 60 62 61 61 61 61 61 61 62 62 62 62 63 63 63 63 64 64 65 66 65 65 65 66 67 68 68 69 69 67 67 68 67 68 69 70 70 69 69 68 68 68 69 69 70 71 71 72 72 72 72 72 72 72 72 72 72 71 71
41 39 38 40 40 34 38 34 33 41 49 52 51 47 49 52 53 52 52 52 56 58 58 59 60 61 62 61 61 60 60 60 60 61 61 61 62 62 62 63 63 63 64 64 65 65 66 65 65 66 66 67 67 68 68 68 69 69 68 68 70 70 70 71 70 70 69 68 68 68 69 69 70 71 71 72 72 72 72 72 72 72 72 72 71 71
46 42 45 38 44 43 38 43 49 51 53 51 51 51 51 52 53 52 52 53 53 53 54 58 60 61 61 61 60 60 60 60 60 61 61 61 62 62 62 63 63 64 64 64 64 65 66 65 65 66 66 67 67 67 67 68 68 68 68 68 69 70 71 70 70 70 69 69 68 68 69 69 70 70 71 71 72 72 71 72 72 72 72 72 71 71
42 43 45 45 45 50 49 53 53 53 52 52 52 52 51 52 53 52 50 49 49 50 52 53 55 57 58 60 60 60 60 60 60 61 61 62 62 63 63 63 64 64 64 64 64 65 64 65 65 65 66 66 66 67 67 67 67 67 67 68 69 70 71 71 70 70 70 69 69 69 69 69 69 70 70 71 71 71 71 71 71 71 72 71 71 71
41 45 46 42 46 44 38 52 52 52 53 52 52 52 53 53 53 52 50 49 49 49 50 51 54 56 57 59 60 60 60 60 60 61 61 62 62 62 63 63 64 64 64 64 64 64 64 64 64 64 65 65 66 66 66 66 67 67 67 68 69 70 70 71 71 70 70 70 70 70 69 69 68 69 69 70 71 71 71 72 71 71 71 71 71 71
36 45 38 41 44 44 44 51 53 53 52 52 52 51 52 53 53 53 52 51 50 50 51 51 52 53 54 55 57 59 58 59 59 59 60 60 61 62 62 63 63 64 64 65 65 65 64 64 63 63 64 65 65 66 66 66 67 67 67 68 68 68 69 69 69 70 71 71 71 70 70 69 69 69 69 69 70 70 71 71 71 71 71 71 71 71
38 41 35 38 41 47 51 52 53 53 51 52 53 53 54 54 54 54 54 53 52 51 51 52 52 52 53 54 55 57 57 58 59 59 60 60 60 61 61 62 63 63 64 64 65 65 65 65 64 64 64 64 65 66 66 66 67 67 67 67 68 68 68 68 67 68 69 70 71 72 71 71 70 70 69 69 70 71 71 71 71 71 71 71 72 72
41 37 40 40 37 42 46 48 51 44 45 51 53 53 53 55 55 54 54 54 53 52 53 53 52 53 52 52 54 55 56 57 57 58 59 59 59 60 61 62 62 63 64 65 65 65 65 65 65 64 64 63 65 65 66 66 66 67 67 67 67 67 67 67 67 68 68 67 68 69 70 71 72 71 71 71 70 71 71 67 59 66 72 72 67 65
39 40 42 40 41 42 49 51 52 51 51 52 53 54 54 55 55 54 54 54 54 54 54 53 53 53 53 54 53 53 53 53 54 56 57 58 59 60 61 62 62 63 64 65 65 65 65 65 65 65 64 64 65 65 66 66 66 66 66 67 67 66 66 66 66 66 65 65 66 66 66 66 67 68 70 72 72 72 71 71 65 53 52 59 65 62